RH
107 110 109 109 109 106 104 106 107 105 104 101 97 96 94 91 90 89 90 90 90 90 91 91 92 93 94 92 88 86 85 85 83 81 79 76 74 72 71 69 66 62 59 58 59 62 65 65 63 61 62 63 63 61 59 58 58 57 57 56 55 53 51
110 110 108 108 108 104 104 108 108 103 100 98 94 93 92 90 88 86 86 86 85 86 87 86 86 87 89 87 84 83 82 82 81 79 78 78 77 76 75 73 69 64 60 58 58 60 63 64 63 62 62 62 61 59 56 55 55 55 54 54 53 53 53
109 107 106 109 109 106 104 106 107 104 101 98 97 96 94 93 91 88 88 88 87 86 85 83 83 84 85 83 81 80 80 79 79 79 79 80 79 78 77 75 71 66 62 59 59 60 62 65 65 65 64 62 61 58 55 54 53 52 53 54 56 57 58
108 106 107 109 108 107 105 104 105 105 102 99 100 101 98 97 96 94 92 92 91 88 86 83 83 84 84 83 81 81 82 81 81 81 81 81 80 79 78 76 73 68 64 62 60 61 64 68 68 68 66 65 63 60 58 56 56 55 56 57 56 55 52
108 107 108 109 107 106 104 104 105 105 103 102 103 104 103 102 101 99 96 95 94 92 89 87 86 87 87 85 84 85 86 85 84 83 83 83 82 82 80 78 76 73 69 66 65 66 68 71 71 71 70 69 67 64 60 58 56 54 52 47 42 37 33
107 107 109 109 110 109 107 106 106 106 106 105 103 102 101 100 99 98 97 97 96 95 93 91 90 90 90 88 87 88 88 88 87 86 85 84 84 83 81 80 78 76 73 70 69 70 71 72 72 71 69 66 62 57 50 46 43 40 35 31 27 24 23
109 109 109 109 111 112 111 108 105 102 101 99 97 95 93 93 93 93 93 94 95 95 94 92 92 91 90 89 89 89 89 88 87 86 85 85 85 84 82 80 77 74 70 67 65 63 61 60 58 55 51 47 42 37 33 31 29 27 24 22 22 21 20
110 110 109 108 108 108 106 104 101 98 96 94 93 91 90 90 90 90 90 91 92 92 92 91 90 90 89 89 89 89 88 87 85 83 82 80 78 74 69 64 59 54 50 47 44 42 40 38 36 34 33 31 29 27 27 26 24 23 22 21 20 19 18
99 101 102 103 103 102 102 101 100 99 97 96 95 94 93 92 91 91 90 90 89 88 87 86 85 84 82 80 78 76 73 70 66 63 59 55 51 47 43 39 35 33 32 31 31 30 29 29 28 28 28 28 27 27 25 23 21 20 20 18 17 16 17
65 68 72 74 76 78 79 80 80 81 81 81 81 79 78 76 74 72 70 69 68 66 63 62 60 57 55 53 50 48 46 44 42 40 38 36 34 32 31 30 29 29 28 28 28 28 28 27 27 27 27 27 26 25 23 21 19 17 16 15 15 16 16
36 37 38 40 42 43 44 45 46 47 47 47 47 46 45 43 42 41 40 39 39 38 37 37 36 35 35 35 35 35 35 35 34 33 33 32 31 31 30 29 28 28 27 27 27 27 26 26 26 26 25 24 23 22 20 18 16 15 14 14 15 15 14
28 28 28 29 29 30 30 31 30 30 30 30 30 29 29 29 29 29 29 30 30 30 30 31 31 31 32 32 33 33 33 32 32 32 32 31 30 29 28 27 26 25 24 24 24 24 24 23 23 22 21 21 20 18 16 15 14 14 13 13 13 13 13
24 25 25 25 26 26 26 26 26 26 26 26 26 26 26 26 27 27 28 28 28 28 28 28 28 28 29 30 30 30 30 30 30 29 28 27 26 25 24 24 23 22 21 21 21 21 21 20 20 19 18 18 17 15 14 13 13 12 12 12 12 13 13
21 21 21 22 22 22 23 23 23 24 24 24 25 24 24 24 24 25 26 25 25 25 25 25 26 26 26 27 27 27 27 26 25 23 22 21 21 20 20 20 19 19 18 18 17 17 17 17 16 15 15 15 14 13 13 13 13 12 12 12 13 14 14
19 20 20 20 20 21 22 22 22 23 23 23 23 23 23 22 22 23 23 23 23 23 23 23 22 22 22 22 22 22 21 20 19 19 18 18 18 18 17 17 16 16 15 14 14 14 14 14 14 14 14 13 13 13 13 13 13 13 13 13 14 14 14
20 20 20 21 21 21 22 22 22 22 22 22 21 21 20 20 19 19 19 19 19 19 18 18 17 17 17 17 18 18 17 17 16 16 15 15 15 15 14 14 14 14 13 13 13 13 13 13 13 13 13 13 14 14 14 13 13 13 14 13 13 13 13
16 17 17 17 17 17 17 17 17 16 16 16 16 15 14 14 14 14 14 14 14 14 14 14 14 14 14 14 15 15 15 14 13 13 13 13 13 13 13 13 13 13 13 13 13 13 14 14 14 14 14 14 14 13 13 12 12 13 13 12 11 12 12
11 11 11 11 11 11 11 11 11 11 11 11 11 11 11 11 11 11 11 11 11 12 13 13 13 13 12 13 13 13 12 12 12 12 12 12 12 12 13 13 14 14 13 13 13 13 14 14 14 14 13 13 12 12 12 12 12 12 11 10 11 11 10
8 8 8 8 8 9 9 9 9 9 9 10 9 10 9 9 10 10 10 10 10 11 11 11 12 12 12 12 12 12 12 12 12 12 12 13 13 13 14 14 14 14 13 13 13 13 13 14 13 13 12 12 12 11 11 11 11 11 10 9 10 10 9
8 8 8 8 8 8 8 9 9 9 9 9 9 9 9 9 9 10 10 10 10 10 11 11 11 12 12 12 13 13 13 12 12 12 12 13 13 13 14 14 13 13 13 12 12 12 12 12 12 12 12 11 11 11 11 10 10 9 9 9 8 8 9
8 8 8 8 8 8 8 9 9 9 9 9 9 9 9 9 9 10 10 10 10 11 11 12 12 12 13 13 13 14 13 13 12 12 11 12 13 13 13 12 12 12 12 11 11 11 11 12 12 11 11 11 10 11 10 9 9 8 8 9 8 9 9
8 8 8 8 8 9 9 9 9 9 9 10 10 10 10 10 10 10 11 11 12 12 12 12 13 13 13 14 14 14 14 13 13 12 11 11 12 12 12 11 11 11 11 11 11 11 11 11 11 11 10 10 9 10 9 9 9 8 8 9 9 10 10
8 8 8 8 9 9 10 10 10 10 10 10 10 10 10 10 10 10 11 11 12 12 12 12 13 13 13 13 13 13 13 12 12 11 10 10 10 10 10 10 10 10 10 10 10 10 10 11 11 10 10 10 9 9 9 9 8 9 9 10 10 11 11
8 9 9 10 10 10 10 11 11 11 11 11 10 10 10 10 10 10 10 10 11 11 12 12 12 12 12 11 11 11 11 11 11 10 10 10 9 9 9 9 9 9 10 10 10 10 10 10 10 10 10 10 10 9 9 9 9 10 10 10 10 11 12
9 10 11 11 11 11 10 10 10 10 10 10 10 10 9 9 9 9 9 9 10 10 10 11 11 11 11 11 10 10 10 10 10 10 9 10 9 9 9 9 9 9 9 9 10 10 10 10 10 10 11 11 11 11 10 11 11 10 10 10 10 11 11
10 10 11 11 11 11 10 10 10 10 10 10 10 9 9 9 9 9 9 9 10 10 10 10 10 10 10 10 10 10 10 10 10 10 10 10 10 9 9 9 9 9 9 9 10 10 11 11 11 11 12 12 12 11 11 11 11 11 10 10 11 11 11
9 9 10 10 10 10 10 10 9 9 9 9 9 9 9 9 9 9 9 9 10 10 9 9 9 9 9 9 9 10 10 10 11 10 10 10 10 9 9 9 9 9 9 9 10 11 12 13 14 14 14 13 12 11 11 10 10 10 10 10 10 10 11
8 8 9 9 9 9 9 9 9 9 8 8 8 8 9 9 9 9 9 9 9 9 8 8 8 8 9 9 9 10 10 10 10 10 9 10 10 10 10 10 10 10 10 10 11 11 11 12 13 13 14 13 13 12 11 10 9 9 9 9 9 9 10
7 8 8 8 8 8 9 8 8 8 8 8 8 8 8 8 8 9 9 9 9 8 8 8 8 9 9 9 9 9 9 9 9 10 10 10 11 11 11 11 10 10 10 10 10 10 10 10 11 11 12 13 13 13 12 11 10 9 8 8 8 9 10
7 7 8 8 8 8 8 8 9 8 8 8 8 7 8 8 8 8 8 8 8 8 8 9 9 8 9 9 9 9 10 10 10 10 11 11 11 10 10 10 10 10 9 9 9 9 9 9 10 10 11 11 12 13 12 12 11 10 10 9 9 9 9
7 8 8 8 8 8 8 8 9 8 8 8 7 7 8 8 7 7 8 8 8 8 8 9 9 9 9 9 9 10 10 11 11 11 11 11 10 10 10 10 10 9 9 8 8 9 9 9 9 10 10 10 11 11 11 11 11 11 10 10 10 9 9
7 7 8 8 8 8 8 8 8 8 8 7 7 8 8 8 7 7 8 8 8 8 9 9 9 10 10 9 9 10 10 10 11 11 11 11 10 10 10 10 9 9 9 9 8 8 9 9 9 9 9 9 9 9 9 10 10 10 10 9 9 9 10
8 8 8 8 8 8 8 8 8 8 8 8 8 9 9 8 8 8 8 8 8 8 9 9 9 10 10 10 10 9 9 9 9 9 10 10 10 10 10 10 9 9 9 9 8 8 7 7 7 8 8 8 8 8 8 9 9 10 10 10 10 11 11
7 8 8 8 8 8 8 8 8 9 9 9 9 9 9 8 8 8 8 8 9 8 8 8 8 9 9 9 9 9 9 9 9 8 8 9 9 9 9 9 9 8 8 8 8 7 7 7 7 8 8 9 9 9 10 10 11 11 11 11 12 12 13
6 7 7 8 8 8 8 8 8 9 9 9 9 9 9 9 9 9 9 9 9 9 9 8 8 8 8 8 8 9 9 9 8 8 8 8 7 7 8 8 8 8 8 9 9 8 8 8 8 8 8 8 9 9 10 10 10 10 10 11 11 11 12
6 6 7 7 8 8 8 8 8 8 8 9 9 9 10 10 10 10 10 9 9 9 9 9 9 9 8 8 8 8 8 8 8 8 8 8 8 8 8 8 8 8 8 8 8 9 8 8 8 8 7 7 8 8 9 9 10 10 10 10 10 10 10
Wind_Speed
101 101 102 103 103 104 105 106 107 109 111 112 112 113 114 114 115 115 115 115 116 116 117 117 117 117 118 119 119 119 119 119 119 119 119 119 119 119 119 120 121 120 119 118 118 119 121 122 123 123 123 123 124 125 125 126 127 128 129 131 132 133 134
104 105 105 106 106 106 107 108 110 111 113 113 114 114 115 116 117 117 117 117 117 118 118 119 119 118 119 120 121 121 121 121 121 121 121 121 121 121 122 123 123 123 122 120 119 120 121 122 123 124 124 125 126 127 127 127 128 129 130 131 132 133 134
107 108 109 109 109 110 110 111 112 113 114 115 115 116 117 118 118 118 118 119 119 119 120 121 120 120 121 122 123 123 123 123 123 122 122 123 123 124 124 125 126 126 124 123 122 121 122 122 124 125 126 127 127 128 128 129 129 129 130 131 132 134 135
110 111 111 112 112 113 113 114 114 116 116 117 117 118 119 120 120 120 120 121 121 122 123 123 122 122 123 124 124 124 124 124 124 124 124 124 125 125 126 127 128 128 127 125 124 123 124 125 126 127 128 129 130 131 131 131 131 131 132 133 134 135 136
113 113 114 114 115 116 116 117 117 118 118 119 120 120 121 122 122 123 123 123 124 124 125 125 124 123 124 125 125 124 125 125 125 126 126 126 126 127 128 129 130 130 130 129 127 127 127 128 130 130 131 132 133 134 133 133 133 134 134 134 134 134 133
115 115 116 117 118 119 119 120 120 121 121 121 122 123 123 123 124 124 125 125 125 125 126 126 125 125 125 126 125 125 126 126 127 128 128 128 129 130 131 132 132 133 133 132 131 131 131 132 133 134 134 135 135 135 134 134 134 134 134 133 131 130 128
117 117 118 119 120 121 121 122 123 123 123 123 124 124 124 125 125 125 126 126 126 126 127 127 127 127 127 127 127 128 128 129 130 131 131 132 132 134 135 135 135 135 135 134 133 133 133 133 134 134 134 134 134 133 132 131 132 131 130 128 127 126 124
119 119 120 121 121 122 123 124 124 124 125 125 126 126 126 126 127 127 127 128 128 128 129 129 129 130 130 130 131 131 132 132 133 133 134 134 135 135 136 136 135 134 134 133 132 131 131 131 131 131 131 130 130 129 128 129 128 127 126 125 124 122 120
121 121 122 122 123 124 125 125 126 126 127 127 128 128 129 129 129 130 130 130 130 131 131 131 132 132 132 133 133 133 133 133 133 133 133 134 134 134 134 133 132 131 130 129 128 128 127 127 127 127 127 127 126 126 126 126 125 123 122 121 119 117 116
121 122 122 123 124 125 126 126 127 128 128 129 129 130 130 130 131 131 131 131 131 131 131 132 132 132 132 132 132 132 131 131 131 131 131 131 130 130 130 129 128 127 126 126 125 125 124 124 123 124 124 124 124 124 124 123 122 120 118 116 114 113 114
121 121 122 122 123 124 125 125 126 126 127 128 128 128 129 129 129 129 129 129 129 129 129 129 129 129 129 129 129 129 129 128 128 128 128 127 127 127 127 126 126 125 124 123 123 122 122 121 121 121 122 122 122 122 121 120 118 116 114 112 111 111 111
120 121 121 121 122 122 123 124 124 125 125 125 126 126 126 126 126 127 127 126 126 126 126 126 126 126 126 126 126 126 126 125 125 125 125 125 125 124 124 124 123 122 121 121 120 120 119 119 119 119 119 119 119 119 118 116 114 112 111 109 108 107 107
120 120 120 121 121 122 122 122 123 123 124 124 124 125 125 124 124 124 124 124 124 124 124 123 123 123 122 122 122 122 122 122 122 122 122 122 122 121 121 121 120 120 119 118 117 117 116 116 116 116 116 116 116 115 113 111 110 109 107 105 104 104 104
118 119 119 119 120 120 120 121 121 122 122 123 123 123 123 123 122 122 122 122 121 121 120 120 120 119 119 119 119 119 119 119 119 119 118 118 118 118 117 117 117 116 116 115 114 113 113 113 113 112 112 111 111 110 108 107 106 105 104 102 101 101 102
116 116 117 117 117 118 118 119 119 120 120 121 121 121 121 120 119 119 119 118 118 117 117 116 116 116 115 115 115 115 116 116 115 115 115 115 115 115 114 113 113 113 113 111 110 109 109 108 108 108 107 106 106 105 104 104 103 102 101 100 99 100 100
112 113 113 114 114 115 115 116 116 116 117 117 117 117 116 116 115 115 114 114 114 113 113 112 112 111 111 111 111 112 112 112 112 112 112 111 111 111 110 109 109 109 109 107 105 105 104 104 103 103 102 102 102 102 102 102 100 99 99 99 98 98 98
108 108 109 109 110 110 111 111 111 111 111 112 112 112 111 111 110 110 109 108 108 108 108 107 107 107 107 107 107 108 109 108 108 108 108 107 106 106 105 104 104 104 104 103 102 101 100 100 100 100 99 99 100 100 100 99 97 97 98 98 96 95 96
102 103 103 103 103 104 104 105 105 105 105 105 105 105 105 104 104 103 102 102 101 101 102 102 103 103 103 103 104 104 104 104 103 103 103 103 102 101 100 99 100 101 100 100 99 98 97 97 97 97 97 97 97 97 97 96 96 97 98 96 95 95 96
95 95 95 96 96 96 97 97 98 98 98 99 99 99 99 98 98 97 97 97 97 97 97 98 98 99 99 99 100 100 100 99 99 99 98 98 98 96 96 96 98 98 97 97 96 95 94 94 94 95 95 95 95 96 95 95 96 97 97 95 94 94 94
90 90 90 90 90 91 91 92 92 93 93 94 94 94 94 94 94 93 93 93 93 93 93 93 94 94 95 95 96 96 96 96 96 95 95 94 94 93 94 95 96 95 95 95 94 93 92 92 92 93 93 93 94 95 95 95 95 95 95 94 93 92 91
87 87 87 87 87 88 88 88 89 89 90 90 91 91 91 90 90 90 89 89 89 89 89 89 90 90 91 91 92 93 93 94 94 94 92 91 91 92 93 93 93 92 93 92 92 91 91 91 92 92 92 92 93 94 95 95 94 93 93 92 91 90 89
84 85 85 85 85 85 85 85 86 86 87 87 87 87 87 87 86 86 85 85 85 86 86 86 87 88 88 89 90 90 91 92 92 93 91 89 89 90 92 92 91 91 91 90 90 90 90 90 91 91 92 92 92 92 93 93 93 92 90 89 88 88 89
81 81 82 82 82 82 82 82 83 83 84 84 84 84 84 84 83 83 82 82 82 83 84 84 85 86 87 88 88 89 89 90 91 91 90 89 89 90 90 90 90 89 89 89 89 89 88 89 91 91 91 91 92 92 91 91 90 90 88 87 86 87 87
77 78 78 79 79 79 79 80 80 80 81 81 81 82 82 82 82 82 81 81 81 82 83 83 84 85 86 87 88 88 88 89 90 90 90 89 89 89 89 89 88 88 88 88 87 87 87 88 89 90 91 91 92 91 90 89 88 88 87 86 85 85 85
74 75 75 76 77 78 78 78 78 79 79 80 81 81 81 81 81 81 80 80 80 81 81 82 83 84 85 86 87 88 88 88 89 89 89 89 89 89 89 88 87 86 86 86 86 86 87 87 88 89 89 90 90 90 88 88 88 88 87 85 84 83 83
73 73 74 74 76 77 78 78 78 78 79 79 79 80 80 80 80 80 79 79 80 80 81 82 83 83 84 85 86 86 87 87 88 88 88 88 88 88 87 87 86 86 85 84 84 84 85 86 87 88 88 89 89 88 88 87 87 87 86 85 84 83 82
71 72 72 74 75 76 76 77 77 78 78 78 77 78 78 78 78 78 78 78 79 80 81 82 82 82 82 82 83 83 84 85 86 87 87 87 87 87 87 86 85 85 84 83 83 83 83 84 86 87 88 89 89 89 88 87 86 85 84 84 84 82 80
69 69 71 72 73 74 74 75 76 76 77 76 75 75 76 76 76 76 77 77 79 80 80 80 79 79 79 80 81 81 82 83 84 85 85 85 85 86 86 85 85 84 83 83 83 83 82 82 83 85 86 87 88 88 88 87 86 84 83 82 82 80 78
68 68 69 70 71 71 72 73 74 75 75 74 73 74 74 74 75 75 75 76 78 78 77 77 77 77 78 79 79 80 81 81 81 82 83 83 84 84 84 85 85 84 83 83 83 82 81 80 81 81 82 83 84 85 86 86 86 84 82 81 80 78 77
66 67 67 68 69 69 70 71 72 74 74 73 72 72 71 72 74 74 73 74 76 75 75 75 76 76 77 77 78 79 80 80 80 81 81 82 83 83 83 83 83 83 83 82 81 80 79 78 78 78 79 80 80 81 83 84 84 83 82 81 80 79 78
64 65 66 66 67 67 68 69 70 71 72 72 72 71 70 72 74 72 70 72 74 74 73 74 75 76 76 76 77 77 78 79 80 80 81 81 81 81 81 82 82 82 82 80 79 78 78 77 77 77 77 77 78 79 79 80 80 80 80 81 80 80 80
63 63 63 64 64 65 66 67 69 69 70 70 69 69 70 73 73 70 69 71 72 72 72 73 74 75 75 76 76 76 76 76 77 77 78 79 79 79 79 79 80 81 81 80 78 77 77 76 76 76 76 76 76 77 77 77 78 78 78 78 79 79 80
61 61 62 62 63 63 64 65 67 68 68 68 68 68 70 71 71 70 70 70 71 71 70 71 71 72 74 74 75 75 75 74 74 74 75 75 76 77 78 78 78 79 79 79 79 78 76 75 75 75 75 75 75 75 75 75 75 75 75 76 76 77 79
57 58 59 61 62 62 63 63 64 65 65 66 66 67 68 69 69 69 69 69 70 70 70 70 70 70 71 71 72 72 72 73 73 74 74 74 73 74 75 76 77 77 77 77 77 77 76 75 74 74 73 73 73 73 73 73 73 73 74 74 74 75 77
56 55 55 57 58 60 60 61 62 62 62 63 63 65 66 67 67 68 68 68 69 69 69 69 69 69 69 69 70 70 70 71 71 72 73 73 73 73 72 72 73 74 74 75 75 75 74 74 73 73 72 71 71 71 71 71 72 72 72 72 73 73 74
58 57 55 54 55 56 57 58 59 59 60 60 61 62 63 64 65 66 67 67 67 67 67 68 68 68 69 69 69 69 69 69 69 69 70 71 72 73 72 72 71 71 71 71 72 72 72 72 72 71 71 70 69 69 69 69 70 70 71 71 71 71 72
Wind_Direction
271 271 271 270 271 271 271 271 271 272 272 272 272 272 272 272 272 272 272 272 272 272 273 273 273 273 273 273 273 274 274 274 274 274 274 274 274 273 273 272 272 271 270 269 269 268 268 268 268 268 267 267 267 267 266 266 267 267 267 268 268 269 269
272 272 271 271 271 271 271 271 271 271 271 272 272 272 272 272 272 272 272 272 272 272 272 272 272 273 273 273 273 273 274 274 274 274 274 274 274 274 273 273 273 272 271 271 270 270 269 269 269 269 269 268 268 268 268 267 268 268 268 269 269 270 270
272 272 271 271 271 271 271 271 271 271 271 272 272 272 272 272 272 272 272 273 273 273 272 272 273 273 273 273 273 273 274 274 274 274 274 274 274 274 273 273 273 273 273 272 272 271 271 271 271 270 270 270 270 270 270 269 269 270 270 270 271 271 271
271 271 271 271 271 271 271 271 271 271 271 271 272 272 272 272 272 272 273 273 273 273 273 273 273 273 273 273 273 274 274 274 274 274 274 274 274 274 274 273 273 274 274 273 273 273 273 272 272 272 272 272 272 272 272 272 272 272 272 272 272 272 272
270 271 271 271 271 271 271 271 271 271 271 271 271 271 272 272 272 272 273 273 273 273 273 273 273 273 273 273 274 274 274 274 274 274 274 274 274 274 274 274 274 274 274 274 274 274 274 273 273 273 273 273 273 273 273 273 273 273 273 273 272 272 272
270 271 271 271 271 271 271 270 270 270 270 270 270 271 271 271 272 272 272 272 273 273 273 273 273 273 273 273 274 274 274 274 274 274 274 274 274 274 274 274 274 275 275 275 275 275 275 274 274 274 274 274 274 274 274 274 274 274 273 273 272 272 272
270 270 270 270 270 270 270 270 270 270 270 270 270 270 271 271 271 272 272 272 272 273 273 273 273 273 274 274 274 274 274 274 274 274 274 274 274 274 274 275 275 275 275 275 275 275 275 275 275 275 274 274 274 274 274 274 274 273 273 272 272 272 271
270 270 270 270 270 270 270 271 271 271 271 271 271 272 272 272 272 272 272 272 273 273 273 273 274 274 274 274 274 274 274 274 274 275 275 275 275 275 275 275 275 275 275 276 276 275 275 275 275 275 275 274 274 274 274 273 273 273 273 272 272 272 272
270 270 270 270 270 271 271 271 271 272 272 272 272 273 273 273 273 273 273 273 273 274 274 274 274 274 274 274 275 275 275 275 275 275 275 275 275 275 275 275 275 275 276 275 275 275 275 275 275 275 275 274 274 274 273 273 273 273 273 272 273 273 273
270 270 270 270 271 271 271 271 272 272 272 272 273 273 273 273 273 273 274 274 274 274 274 274 274 275 275 275 275 275 275 275 275 275 275 275 275 275 275 275 275 275 275 275 275 275 275 275 275 275 275 274 274 274 273 273 273 273 273 274 274 273 273
271 271 271 272 272 272 272 272 272 272 272 273 273 273 273 273 273 274 274 274 274 274 274 275 275 275 275 275 275 275 275 275 275 275 275 275 275 275 275 275 275 275 275 275 275 275 275 275 275 275 274 274 274 274 274 274 274 274 274 274 273 273 272
273 273 273 273 273 273 273 273 273 273 273 273 273 273 273 273 274 274 274 274 274 274 275 275 275 275 275 275 275 275 275 275 275 275 275 275 275 275 275 275 275 275 275 275 275 275 275 275 274 274 274 274 274 274 274 274 274 274 274 273 273 272 272
274 274 274 274 274 274 274 273 274 274 274 274 274 274 274 274 274 274 275 275 275 275 275 275 275 275 275 275 275 275 275 275 275 274 274 274 274 274 275 275 275 275 275 275 274 274 274 274 274 274 274 274 273 274 274 274 274 273 273 272 272 272 271
275 275 275 275 275 275 275 275 275 275 275 275 275 275 275 275 275 275 275 275 275 275 275 275 275 275 275 275 275 275 275 275 275 274 274 274 275 275 275 275 275 275 275 275 274 274 274 274 274 274 273 273 273 273 273 273 273 272 272 272 272 271 270
276 276 276 276 276 276 276 276 276 276 275 275 275 275 275 275 275 275 275 275 275 275 275 275 275 275 275 275 275 275 275 275 275 275 275 275 274 274 274 274 275 275 274 274 274 274 274 274 273 273 273 273 273 273 273 272 272 272 272 272 271 270 269
276 276 276 276 276 275 275 275 275 275 275 275 275 275 275 275 275 275 275 275 275 275 275 275 275 275 275 275 275 275 275 275 274 274 274 274 274 274 274 274 274 274 274 274 274 274 273 273 273 273 273 273 273 272 272 272 272 272 271 270 270 270 269
275 275 274 274 274 274 274 274 274 274 274 274 274 275 275 275 275 275 275 275 275 275 276 276 276 275 275 275 275 275 274 274 274 274 274 274 274 274 274 274 274 274 274 274 273 273 273 273 273 273 272 272 272 272 272 272 271 271 270 270 270 270 269
274 274 274 274 274 274 274 274 275 275 275 275 275 275 275 275 275 276 276 276 276 276 276 276 276 275 275 275 274 274 274 274 274 274 274 274 274 274 274 274 273 273 273 273 273 273 272 272 272 272 272 271 271 271 271 271 271 270 270 270 270 270 269
276 276 276 276 276 276 276 276 276 276 276 276 276 276 276 276 276 276 276 276 276 276 275 275 275 275 275 275 275 274 274 274 274 274 274 274 274 274 274 273 272 272 272 272 272 272 272 272 271 271 271 271 271 271 271 271 271 270 270 270 270 270 271
278 278 278 277 277 277 277 277 277 277 277 277 277 277 277 277 277 276 276 276 276 276 276 276 275 275 275 275 275 275 274 274 273 273 273 273 273 273 273 272 272 272 272 272 272 272 272 272 271 271 271 271 271 272 271 271 270 271 271 271 271 271 271
279 279 279 279 279 278 278 278 278 277 277 277 277 277 276 276 277 276 277 277 277 277 276 276 276 275 275 274 274 274 274 274 274 273 273 273 273 273 272 271 272 272 272 272 272 273 273 272 272 272 272 271 271 271 272 271 271 271 271 272 272 272 272
279 279 279 279 279 278 278 278 277 277 277 276 276 277 277 277 277 277 277 277 277 276 276 275 275 275 274 274 274 274 274 274 274 274 273 273 272 272 272 272 272 272 273 273 273 274 274 274 274 273 273 272 272 271 271 271 271 271 271 271 272 271 271
279 279 278 278 278 278 277 277 277 277 277 277 277 277 277 277 277 276 276 276 276 276 275 275 275 274 274 274 274 274 274 274 274 274 274 274 273 273 273 273 274 274 274 274 274 274 274 274 274 274 273 273 273 272 271 271 271 271 271 271 270 269 269
278 278 278 278 278 278 277 277 277 277 277 277 277 277 277 276 276 276 276 276 276 276 275 275 275 275 275 274 274 274 274 274 275 275 275 275 275 275 275 275 275 275 275 274 274 274 274 273 273 273 273 273 273 272 272 272 272 271 271 270 270 269 269
278 278 278 278 278 277 277 277 277 277 277 277 277 277 277 277 277 277 277 277 277 276 276 275 275 275 275 275 275 276 276 276 276 276 276 276 276 276 276 275 275 274 274 274 274 274 274 274 273 273 273 273 273 273 273 273 272 272 271 271 270 270 269
278 278 278 278 277 277 278 278 278 277 277 277 277 278 278 278 278 278 278 278 277 277 276 275 275 275 275 275 276 276 277 277 277 277 277 276 276 276 275 275 275 275 274 274 274 274 275 275 275 274 274 274 273 273 273 272 272 272 272 271 271 270 269
279 279 279 278 278 278 279 279 279 278 278 278 278 278 278 279 279 279 278 278 277 276 276 275 275 275 276 276 276 276 276 276 276 276 276 276 276 276 276 276 276 276 276 275 275 274 274 273 274 274 274 274 274 273 273 272 271 271 270 270 269 269 269
281 280 280 279 279 280 280 280 279 279 279 279 279 279 279 279 279 279 278 278 277 276 276 277 277 277 277 277 276 275 275 275 275 276 277 277 277 277 277 277 277 276 276 275 274 273 273 272 272 272 272 273 274 274 274 273 272 271 270 269 268 268 267
283 282 282 281 281 281 281 281 281 281 281 281 281 280 280 280 280 279 279 278 278 278 279 279 279 278 277 277 277 277 277 277 277 277 277 277 277 277 277 277 277 276 276 275 274 273 273 272 271 271 271 272 272 273 273 273 273 273 272 271 270 269 267
285 284 284 283 283 283 282 282 282 283 283 283 282 282 282 281 280 280 280 280 280 280 280 280 280 279 279 279 279 279 279 279 278 278 278 277 277 277 277 277 276 276 275 275 274 274 273 272 272 271 271 270 270 270 271 272 272 273 273 273 272 271 269
286 285 285 285 285 284 284 283 283 283 283 283 283 284 283 282 280 281 281 281 281 281 281 281 281 280 280 279 279 279 278 279 279 278 278 278 278 277 277 277 277 276 276 275 275 275 274 273 272 271 271 270 270 269 269 270 270 271 271 272 272 271 271
287 286 286 285 285 284 284 284 284 283 284 284 285 285 284 283 283 283 283 282 281 281 281 281 281 280 280 280 279 278 278 277 277 277 277 278 278 277 277 277 277 276 277 276 276 275 274 273 273 272 271 270 270 269 269 268 268 269 269 269 269 269 269
288 287 287 286 285 285 284 284 285 285 286 286 286 285 284 284 285 285 284 283 282 282 281 281 280 280 280 280 280 280 279 279 278 277 276 276 276 277 277 277 276 276 276 276 276 275 275 274 273 272 271 270 270 269 269 268 268 267 267 267 267 267 267
286 286 286 286 286 286 285 285 285 285 286 286 286 285 285 285 285 285 284 284 284 283 283 282 281 280 280 280 280 280 280 280 279 279 278 277 276 275 275 275 275 275 275 275 275 275 274 274 273 272 271 270 269 269 269 268 268 267 266 266 266 266 266
289 287 286 286 286 286 286 286 286 286 285 285 285 285 286 286 286 286 286 285 285 285 285 284 284 283 282 282 281 281 280 280 280 280 279 279 278 276 275 274 273 274 274 274 274 274 274 273 273 272 271 270 269 268 268 268 267 267 266 265 265 265 265
293 292 290 288 287 287 286 286 286 286 286 286 286 285 285 286 286 286 286 285 285 284 284 284 284 284 284 283 283 282 281 280 280 279 279 279 279 278 278 276 275 274 273 273 273 273 273 273 273 273 272 271 270 269 268 267 267 266 266 266 265 265 265